Weather History for KRDR - October, 2012

Change the Weather History Date:

Monday, October 8, 2012

  Actual Average Record
Temperature  
Mean Temperature 42 °F -  
Max Temperature 52 °F 58 °F 80 °F (2003)
Min Temperature 33 °F 35 °F 19 °F (2000)
Degree Days  
Heating Degree Days 23    
Moisture  
Dew Point 39 °F    
Average Humidity 83    
Maximum Humidity 93    
Minimum Humidity 62    
Precipitation  
Precipitation 0.04 in - - ()
Sea Level Pressure  
Sea Level Pressure 29.60 in    
Wind  
Wind Speed 6 mph (WNW)    
Max Wind Speed 18 mph    
Max Gust Speed 30 mph    
Visibility 10 miles    
Events Rain    
Averages and records for this station are not official NWS values.
T = Trace of Precipitation, MM = Missing Value Source: NWS Daily Summary

Daily Weather History Graph

Daily Weather History Graph

Search for Another Location

Airport or City:

Trip Planner

Search our weather history database for the weather conditions in past years. The results will help you decide how hot, cold, wet, or windy it might be!

Date:

Astronomy

Oct. 08, 2012 Rise Set
Actual Time 7:39 AM CDT 6:53 PM CDT
Civil Twilight 7:08 AM CDT 7:24 PM CDT
Nautical Twilight 6:32 AM CDT 8:00 PM CDT
Astronomical Twilight 5:56 AM CDT 8:36 PM CDT
Moon No Moon Rise 3:11 PM CDT (10/8)
Length of Visible Light 12h 16m
Length of Day
11h 14m
Last Quarter, 46% of the Moon is Illuminated
Oct 8
Last Quarter
Oct 15
New
Oct 21
First Quarter
Oct 29
Full
Nov 6
Last Quarter

Hourly Weather History & Observations

Time (CDT) Temp. Windchill Dew Point Humidity Pressure Visibility Wind Dir Wind Speed Gust Speed Precip Events Conditions
12:55 AM 33.3 °F - 30.6 °F 90% 29.74 in 10.0 mi Calm Calm - N/A   Partly Cloudy
1:55 AM 37.4 °F 34.9 °F 33.6 °F 86% 29.73 in 10.0 mi SW 3.5 mph - N/A   Overcast
2:55 AM 38.3 °F 34.8 °F 34.0 °F 84% 29.70 in 10.0 mi South 4.6 mph - N/A   Overcast
3:55 AM 37.9 °F 34.4 °F 32.7 °F 81% 29.66 in 10.0 mi South 4.6 mph - N/A   Partly Cloudy
4:55 AM 37.8 °F 35.3 °F 33.8 °F 86% 29.64 in 10.0 mi South 3.5 mph - N/A   Clear
5:55 AM 40.1 °F 35.3 °F 35.4 °F 83% 29.62 in 10.0 mi SSW 6.9 mph - N/A   Overcast
6:55 AM 41.2 °F 38.2 °F 36.3 °F 83% 29.60 in 10.0 mi SSE 4.6 mph - 0.00 in   Light Drizzle
7:06 AM 41.0 °F 38.0 °F 37.4 °F 87% 29.59 in 10.0 mi SE 4.6 mph - N/A   Mostly Cloudy
7:09 AM 41.0 °F 38.0 °F 37.4 °F 87% 29.59 in 10.0 mi SSE 4.6 mph - N/A   Light Drizzle
7:11 AM 41.0 °F 37.1 °F 37.4 °F 87% 29.58 in 10.0 mi SSE 5.8 mph - N/A   Mostly Cloudy
7:40 AM 41.0 °F 37.1 °F 37.4 °F 87% 29.57 in 10.0 mi SSE 5.8 mph - N/A   Light Drizzle
7:55 AM 40.5 °F 35.8 °F 36.9 °F 87% 29.57 in 10.0 mi SSE 6.9 mph - 0.00 in Rain Light Rain
7:59 AM 41.0 °F 36.4 °F 37.4 °F 87% 29.56 in 10.0 mi SSE 6.9 mph - N/A   Overcast
8:07 AM 41.0 °F 36.4 °F 35.6 °F 81% 29.56 in 10.0 mi SSE 6.9 mph - N/A Rain Light Rain
8:20 AM 41.0 °F 37.1 °F 37.4 °F 87% 29.56 in 10.0 mi South 5.8 mph - N/A   Overcast
8:21 AM 41.0 °F 37.1 °F 37.4 °F 87% 29.56 in 10.0 mi South 5.8 mph - N/A   Light Drizzle
8:55 AM 40.6 °F 37.5 °F 37.8 °F 89% 29.56 in 9.0 mi SSE 4.6 mph - 0.01 in Rain Light Rain
9:41 AM 41.0 °F 39.0 °F 39.2 °F 93% 29.55 in 10.0 mi SSE 3.5 mph - N/A   Overcast
9:49 AM 41.0 °F 39.0 °F 39.2 °F 93% 29.55 in 10.0 mi SE 3.5 mph - N/A   Overcast
9:55 AM 40.8 °F 38.8 °F 39.0 °F 93% 29.55 in 10.0 mi SE 3.5 mph - 0.03 in   Overcast
10:26 AM 41.0 °F - 39.2 °F 93% 29.53 in 10.0 mi Calm Calm - N/A   Mostly Cloudy
10:55 AM 43.0 °F - 40.8 °F 92% 29.53 in 10.0 mi Calm Calm - N/A   Scattered Clouds
11:05 AM 44.6 °F 43.1 °F 41.0 °F 87% 29.53 in 10.0 mi WNW 3.5 mph - N/A   Mostly Cloudy
11:12 AM 44.6 °F 41.4 °F 41.0 °F 87% 29.54 in 10.0 mi NNW 5.8 mph - N/A   Overcast
11:29 AM 44.6 °F 40.7 °F 42.8 °F 93% 29.54 in 10.0 mi Variable 6.9 mph - N/A   Overcast
11:35 AM 44.6 °F 40.7 °F 42.8 °F 93% 29.54 in 10.0 mi NNW 6.9 mph - N/A   Overcast
11:44 AM 44.6 °F 40.7 °F 42.8 °F 93% 29.54 in 10.0 mi NNW 6.9 mph - N/A   Overcast
11:55 AM 44.8 °F 39.9 °F 42.3 °F 91% 29.54 in 10.0 mi NNW 9.2 mph - N/A   Overcast
11:58 AM 44.6 °F 39.2 °F 41.0 °F 87% 29.55 in 10.0 mi NNW 10.4 mph - N/A   Overcast
12:36 PM 42.8 °F 36.6 °F 41.0 °F 93% 29.57 in 10.0 mi NNW 11.5 mph - N/A   Overcast
12:55 PM 42.4 °F 35.3 °F 40.3 °F 92% 29.58 in 10.0 mi NNW 13.8 mph - N/A   Overcast
1:26 PM 42.8 °F 37.0 °F 41.0 °F 93% 29.59 in 10.0 mi NNW 10.4 mph - N/A   Overcast
1:33 PM 42.8 °F 37.5 °F 41.0 °F 93% 29.59 in 10.0 mi NW 9.2 mph - N/A   Overcast
1:44 PM 44.6 °F 39.7 °F 41.0 °F 87% 29.59 in 10.0 mi NW 9.2 mph - N/A   Overcast
1:51 PM 46.4 °F 41.5 °F 41.0 °F 81% 29.60 in 10.0 mi NW 10.4 mph - N/A   Overcast
1:57 PM 46.4 °F 41.5 °F 41.0 °F 81% 29.60 in 10.0 mi NNW 10.4 mph - N/A   Overcast
2:05 PM 46.4 °F 41.9 °F 41.0 °F 81% 29.60 in 10.0 mi NNW 9.2 mph - N/A   Overcast
2:08 PM 46.4 °F 41.9 °F 41.0 °F 81% 29.60 in 10.0 mi NNW 9.2 mph - N/A   Overcast
2:21 PM 46.4 °F 41.9 °F 41.0 °F 81% 29.60 in 10.0 mi NW 9.2 mph - N/A   Overcast
2:27 PM 46.4 °F 41.1 °F 41.0 °F 81% 29.60 in 10.0 mi NNW 11.5 mph - N/A   Overcast
2:55 PM 47.5 °F - 41.2 °F 79% 29.60 in 10.0 mi NW 15.0 mph - N/A   Overcast
3:03 PM 48.2 °F - 41.0 °F 76% 29.61 in 10.0 mi NW 13.8 mph - N/A   Overcast
3:30 PM 48.2 °F - 41.0 °F 76% 29.62 in 10.0 mi NW 13.8 mph - N/A   Light Drizzle
3:33 PM 48.2 °F - 41.0 °F 76% 29.62 in 10.0 mi WNW 11.5 mph - N/A   Light Drizzle
3:38 PM 48.2 °F - 42.8 °F 82% 29.62 in 10.0 mi WNW 11.5 mph - N/A   Light Drizzle
3:42 PM 48.2 °F - 41.0 °F 76% 29.62 in 10.0 mi NW 10.4 mph - N/A   Overcast
3:55 PM 49.6 °F - 42.1 °F 75% 29.61 in 10.0 mi WNW 10.4 mph - 0.00 in   Overcast
4:55 PM 51.1 °F - 39.7 °F 65% 29.62 in 10.0 mi WNW 16.1 mph 20.7 mph N/A   Overcast
5:45 PM 50.0 °F - 37.4 °F 62% 29.64 in 10.0 mi NW 18.4 mph 29.9 mph N/A Rain Light Rain
5:55 PM 48.0 °F - 37.2 °F 66% 29.64 in 10.0 mi NW 12.7 mph 24.2 mph 0.00 in   Light Drizzle
5:56 PM 48.2 °F - 37.4 °F 66% 29.64 in 10.0 mi NW 13.8 mph - N/A   Mostly Cloudy
6:55 PM 46.8 °F - 37.0 °F 69% 29.66 in 10.0 mi NW 10.4 mph - 0.00 in   Overcast
7:55 PM 46.6 °F - 35.6 °F 66% 29.66 in 10.0 mi NW 10.4 mph - N/A   Overcast
8:55 PM 43.3 °F 39.2 °F 36.3 °F 76% 29.67 in 10.0 mi WNW 6.9 mph - N/A   Partly Cloudy
9:55 PM 42.6 °F 37.8 °F 34.7 °F 74% 29.68 in 10.0 mi WNW 8.1 mph - N/A   Clear
10:55 PM 41.0 °F 34.7 °F 32.7 °F 72% 29.67 in 10.0 mi WNW 10.4 mph - N/A   Clear
11:55 PM 40.1 °F 33.2 °F 31.3 °F 71% 29.67 in 10.0 mi WNW 11.5 mph - N/A   Clear